[[{"header":{"parameterUnit":"m.s-1","parameterCategory":1,"la1":30.2991,"la2":30.254,"lo1":-89.0895,"lo2":-89.0444,"dx":0.0017,"dy":0.0017,"nx":28,"ny":28,"refTime":"2022-11-12T09:00:00:Z","depth":0,"parameterNumber":2,"parameterNumberName":"U-component_of_WINDS"},"data":[0,0,0,0,0,0,0,0,0,0,0,0,0,0,0,0,0,0,0,0,0,0,0,0,0,0,0,0,0,0,0,0,0,0,0,0,0,0,0,0,0,0,0,0,0,0,0,0,0,0,0,0,0,0,0,0,0,0,1.4493,1.4493,0,1.446,1.4459,1.4459,1.4453,1.4453,1.4453,1.4454,1.4415,1.4414,1.4413,0,0,0,0,0,0,0,0,0,0,0,0,0,1.4549,1.4548,1.4493,1.4493,1.4493,1.446,1.4459,1.4459,1.4453,1.4453,1.4453,1.4454,1.4416,1.4414,1.4412,0,0,0,0,0,0,0,0,0,0,0,0,0,1.4521,1.4548,1.4494,1.4486,1.4485,1.446,1.4459,1.4459,1.4453,1.4453,1.4454,1.4454,1.4416,1.4414,1.4412,1.4392,0,0,1.4406,1.4405,0,0,0,0,0,0,0,0,1.4523,1.4519,1.4487,1.4486,1.4485,1.4461,1.4465,1.4436,1.4453,1.4465,1.4454,1.4454,1.443,1.4427,1.4419,1.439,1.4388,1.4406,1.4405,1.4404,1.4404,0,0,0,0,0,0,0,1.4525,1.452,1.448,1.4487,1.4485,1.4483,1.4479,1.4459,1.4445,1.4464,1.4463,1.446,1.4429,1.4421,1.4418,1.4388,1.4406,1.4404,1.4403,1.4403,1.4339,1.4339,0,0,0,0,0,0,1.4529,1.4522,1.4481,1.4479,1.4505,1.4482,1.4478,1.4468,1.4445,1.4442,1.4459,1.4459,1.4424,1.4421,1.4417,1.4391,1.4404,1.4402,1.4401,1.434,1.4339,1.4339,0,0,0,0,0,0,1.453,1.4525,1.4482,1.45,1.4495,1.448,1.447,1.4467,1.4459,1.4442,1.4439,1.4454,1.4425,1.442,1.4398,1.439,1.4401,1.44,1.434,1.434,1.4339,1.4339,0,0,0,0,0,0,1.4531,1.4525,1.4518,1.45,1.4494,1.4465,1.4469,1.4466,1.4456,1.4456,1.4436,1.4433,1.4425,1.4401,1.4396,1.4387,1.4398,1.4341,1.434,1.4339,1.434,1.4338,1.4337,0,0,0,0,0,1.4533,1.4519,1.4518,1.4513,1.4485,1.4465,1.4461,1.4452,1.4456,1.4448,1.4437,1.4434,1.4392,1.4399,1.4393,1.4384,1.4342,1.434,1.4339,1.434,1.4339,1.4337,0,0,0,0,0,0,1.4534,1.4516,1.4515,1.4494,1.4481,1.4464,1.4453,1.4451,1.4435,1.4436,1.4425,1.442,1.4399,1.4389,1.4398,1.4362,1.4367,1.4364,1.4369,1.4368,1.4367,1.4369,1.4397,0,0,0,0,0,1.4532,1.4519,1.4503,1.4486,1.448,1.4468,1.4459,1.4454,1.4439,1.4433,1.442,1.4405,1.4389,1.4378,1.4362,1.4339,1.4334,1.4329,1.4328,1.4327,1.4325,1.4312,1.4309,1.4335,1.4335,1.4335,0,0,1.4527,1.4516,1.4507,1.4486,1.4475,1.4461,1.4463,1.4447,1.4436,1.443,1.4409,1.44,1.4382,1.436,1.435,1.4351,1.4317,1.4326,1.4325,1.4323,1.431,1.4308,1.4306,1.4334,1.4334,1.4334,0,0,1.451,1.4501,1.4486,1.4476,1.446,1.4452,1.4449,1.4432,1.4426,1.4405,1.4401,1.4386,1.4358,1.4346,1.4336,1.4316,1.4312,1.4311,1.4304,1.4291,1.4289,1.4287,1.4279,1.4277,1.4309,1.4309,1.4309,0,1.4506,1.4484,1.4478,1.4463,1.4453,1.4449,1.4433,1.4423,1.4402,1.4395,1.4398,1.4363,1.4351,1.4326,1.4321,1.4313,1.4308,1.4312,1.429,1.4288,1.4286,1.4279,1.4276,1.4309,1.4309,1.4309,1.4309,0,1.4479,1.4464,1.4454,1.4436,1.4425,1.4409,1.44,1.4389,1.4386,1.4377,1.4356,1.4342,1.4323,1.4317,1.4312,1.4291,1.4292,1.4293,1.4296,1.4284,1.4276,1.4273,1.4309,1.4309,1.4309,1.4309,0,0,1.446,1.444,1.4436,1.4428,1.4411,1.4399,1.4383,1.4366,1.4357,1.4343,1.4328,1.4305,1.4306,1.4295,1.4289,1.4278,1.4263,1.428,1.4279,1.4276,1.4237,1.4236,1.4233,1.4261,1.426,1.426,1.4238,0,1.4441,1.4413,1.4408,1.4383,1.4369,1.4366,1.4352,1.434,1.4332,1.4318,1.4309,1.4293,1.4295,1.4288,1.4278,1.4267,1.4254,1.4268,1.4246,1.4245,1.4249,1.4229,1.4227,1.4208,1.4235,1.4235,1.4235,0,1.4414,1.4401,1.4376,1.4361,1.4355,1.4343,1.4327,1.4314,1.43,1.4295,1.4283,1.4279,1.4261,1.4267,1.4242,1.4252,1.4243,1.4236,1.4235,1.4231,1.4238,1.4223,1.4201,1.4198,1.423,1.423,1.4231,0,1.4402,1.4378,1.436,1.4353,1.4336,1.4327,1.4319,1.4306,1.4296,1.4282,1.4275,1.4258,1.4249,1.4236,1.4227,1.4232,1.4202,1.4208,1.4196,1.4196,1.4188,1.4189,1.4163,1.4185,1.4185,1.4185,1.4185,0,1.438,1.4364,1.4354,1.4343,1.4325,1.4319,1.4301,1.4293,1.4281,1.4267,1.4264,1.4251,1.424,1.4226,1.4219,1.4198,1.4194,1.4189,1.4187,1.4188,1.4189,1.4181,1.4181,1.4184,1.4184,1.4185,1.4185,0,1.4362,1.4355,1.4335,1.4321,1.4317,1.4304,1.4292,1.428,1.4273,1.4256,1.4252,1.424,1.4222,1.4213,1.419,1.4186,1.4163,1.4162,1.4168,1.4167,1.4156,1.4156,1.4123,1.4117,1.4144,1.4144,1.4144,0,1.4347,1.4336,1.4321,1.4312,1.4305,1.4291,1.4281,1.4274,1.4264,1.4248,1.4238,1.4221,1.4207,1.4179,1.4168,1.4151,1.4149,1.4138,1.4146,1.4148,1.4147,1.4147,1.4146,1.4136,1.4136,1.4136,1.4136,0,1.4322,1.432,1.4307,1.4293,1.4282,1.427,1.4258,1.4251,1.4242,1.4231,1.4214,1.4203,1.4181,1.4164,1.4146,1.4137,1.4134,1.4134,1.413,1.413,1.4134,1.4131,1.4163,1.4134,1.4134,1.4134,1.4134,1.4134,1.4305,1.4294,1.4283,1.4268,1.4259,1.4248,1.4237,1.4229,1.4215,1.4198,1.4195,1.4177,1.4163,1.4139,1.413,1.4115,1.4117,1.4111,1.411,1.4108,1.4107,1.4138,1.4112,1.4112,1.4112,1.4112,1.4112,0,1.4279,1.4272,1.4259,1.4243,1.4231,1.4232,1.4219,1.4209,1.4194,1.4182,1.4169,1.4149,1.4133,1.4121,1.4104,1.4094,1.4092,1.4089,1.4089,1.4087,1.4107,1.4112,1.4091,1.4091,1.4091,1.4091,1.4091,1.4091,1.4264,1.4246,1.4242,1.4219,1.4211,1.4195,1.4187,1.4177,1.4168,1.4146,1.4133,1.4126,1.4114,1.4097,1.4081,1.4078,1.4071,1.4068,1.4065,1.4083,1.4086,1.4088,1.4092,1.4067,1.4067,1.4046,1.4046,1.4045]},{"header":{"parameterUnit":"m.s-1","parameterCategory":1,"la1":30.2991,"la2":30.254,"lo1":-89.0895,"lo2":-89.0444,"dx":0.0017,"dy":0.0017,"nx":28,"ny":28,"refTime":"2022-11-12T09:00:00:Z","depth":0,"parameterNumber":3,"parameterNumberName":"V-component_of_WINDS"},"data":[0,0,0,0,0,0,0,0,0,0,0,0,0,0,0,0,0,0,0,0,0,0,0,0,0,0,0,0,0,0,0,0,0,0,0,0,0,0,0,0,0,0,0,0,0,0,0,0,0,0,0,0,0,0,0,0,0,0,-9.0135,-9.0137,0,-9.0324,-9.0326,-9.0328,-9.0237,-9.0232,-9.0227,-9.0223,-9.0409,-9.0418,-9.0427,0,0,0,0,0,0,0,0,0,0,0,0,0,-8.9688,-8.9696,-9.0134,-9.0137,-9.0139,-9.0323,-9.0326,-9.0329,-9.0238,-9.0232,-9.0226,-9.022,-9.0406,-9.0417,-9.0428,0,0,0,0,0,0,0,0,0,0,0,0,0,-8.988,-8.9699,-9.0134,-9.0116,-9.0117,-9.0323,-9.0326,-9.0329,-9.0239,-9.0232,-9.0224,-9.0218,-9.0402,-9.0416,-9.043,-9.0662,0,0,-9.0473,-9.0479,0,0,0,0,0,0,0,0,-8.9869,-8.9896,-9.0117,-9.0118,-9.0119,-9.025,-9.0237,-9.0441,-9.0241,-9.0192,-9.0223,-9.0214,-9.0361,-9.0378,-9.0429,-9.0671,-9.0679,-9.0474,-9.0483,-9.0489,-9.0493,0,0,0,0,0,0,0,-8.9856,-8.9887,-9.0209,-9.012,-9.0121,-9.0097,-9.0116,-9.0275,-9.0315,-9.0196,-9.019,-9.0214,-9.036,-9.0416,-9.0433,-9.0682,-9.0474,-9.0486,-9.0495,-9.0501,-9.1123,-9.1131,0,0,0,0,0,0,-8.9844,-8.9877,-9.0203,-9.0215,-8.9974,-9.0111,-9.0132,-9.0215,-9.0313,-9.0321,-9.022,-9.0209,-9.0395,-9.0417,-9.0439,-9.0718,-9.0489,-9.0502,-9.051,-9.1115,-9.1125,-9.1134,0,0,0,0,0,0,-8.9835,-8.9874,-9.0195,-9.0045,-9.0084,-9.0126,-9.0219,-9.0222,-9.0278,-9.0331,-9.0337,-9.027,-9.039,-9.0419,-9.0608,-9.0723,-9.0509,-9.0521,-9.1106,-9.1118,-9.1129,-9.1278,0,0,0,0,0,0,-8.9822,-8.9871,-8.9962,-9.0047,-9.0092,-9.0364,-9.0227,-9.0231,-9.0304,-9.0291,-9.038,-9.0387,-9.0387,-9.0587,-9.0622,-9.0739,-9.0532,-9.1095,-9.1111,-9.1125,-9.1263,-9.1294,-9.132,0,0,0,0,0,-8.9807,-8.9994,-8.9967,-9.0007,-9.0206,-9.0371,-9.0396,-9.0394,-9.0313,-9.0403,-9.0438,-9.0384,-9.0705,-9.0607,-9.0646,-9.0769,-9.1088,-9.1107,-9.1124,-9.125,-9.1288,-9.1319,0,0,0,0,0,0,-8.9918,-9.0005,-8.9975,-9.0197,-9.0278,-9.0355,-9.0469,-9.0434,-9.0537,-9.052,-9.0511,-9.0532,-9.0728,-9.0767,-9.0656,-9.0999,-9.0884,-9.091,-9.0966,-9.1003,-9.103,-9.1017,-9.0544,0,0,0,0,0,-8.9969,-9.0098,-9.0165,-9.0354,-9.0396,-9.0426,-9.0497,-9.0489,-9.0571,-9.0604,-9.0652,-9.0731,-9.085,-9.0928,-9.104,-9.1268,-9.1285,-9.1371,-9.14,-9.1423,-9.1446,-9.1569,-9.1608,-9.1193,-9.1193,-9.1192,0,0,-9.0074,-9.0138,-9.0219,-9.0378,-9.0439,-9.0571,-9.0455,-9.0599,-9.0696,-9.0625,-9.0807,-9.0845,-9.0933,-9.1143,-9.1237,-9.1181,-9.1565,-9.1446,-9.1464,-9.1475,-9.1592,-9.1631,-9.1666,-9.1205,-9.1203,-9.1201,0,0,-9.0333,-9.0395,-9.0559,-9.0624,-9.0719,-9.0738,-9.0778,-9.0862,-9.0885,-9.1068,-9.1018,-9.1132,-9.1336,-9.1402,-9.1461,-9.1747,-9.1701,-9.1783,-9.1932,-9.2052,-9.2085,-9.2114,-9.2216,-9.2252,-9.1806,-9.1806,-9.1806,0,-9.0451,-9.065,-9.0647,-9.0796,-9.0867,-9.0812,-9.0977,-9.1039,-9.1166,-9.1215,-9.1151,-9.1408,-9.1463,-9.1687,-9.1757,-9.1807,-9.1851,-9.1773,-9.2081,-9.211,-9.2137,-9.2234,-9.2272,-9.1816,-9.1814,-9.1813,-9.1813,0,-9.0791,-9.0929,-9.105,-9.1177,-9.1261,-9.1417,-9.1436,-9.1522,-9.1506,-9.1531,-9.1718,-9.1783,-9.1907,-9.196,-9.1945,-9.2183,-9.2145,-9.2081,-9.1966,-9.2186,-9.2277,-9.2314,-9.1829,-9.1826,-9.1823,-9.182,0,0,-9.1125,-9.125,-9.1294,-9.1351,-9.1453,-9.1559,-9.1712,-9.1837,-9.191,-9.1999,-9.2126,-9.2302,-9.2244,-9.2312,-9.2304,-9.241,-9.2632,-9.2333,-9.2335,-9.2386,-9.2897,-9.2945,-9.2988,-9.2603,-9.261,-9.2615,-9.289,0,-9.1392,-9.1663,-9.1665,-9.1914,-9.2042,-9.1992,-9.2125,-9.22,-9.2228,-9.2338,-9.2367,-9.2492,-9.2406,-9.2447,-9.2549,-9.2583,-9.2734,-9.2563,-9.2719,-9.2725,-9.27,-9.3036,-9.3086,-9.3343,-9.2926,-9.2932,-9.2936,0,-9.1739,-9.1843,-9.2106,-9.219,-9.2244,-9.2364,-9.2479,-9.2585,-9.267,-9.2682,-9.2759,-9.2735,-9.2889,-9.2769,-9.298,-9.2864,-9.2928,-9.2954,-9.2964,-9.2978,-9.2844,-9.3059,-9.3424,-9.3463,-9.2992,-9.2987,-9.2983,0,-9.1958,-9.2162,-9.2346,-9.2397,-9.25,-9.2585,-9.2632,-9.2709,-9.2784,-9.2883,-9.2932,-9.3047,-9.311,-9.3198,-9.3205,-9.3117,-9.3418,-9.3298,-9.3431,-9.3431,-9.3497,-9.3493,-9.3877,-9.3538,-9.3537,-9.3537,-9.3536,0,-9.2256,-9.2418,-9.2446,-9.2559,-9.2739,-9.2739,-9.2917,-9.2955,-9.3025,-9.3143,-9.3105,-9.3217,-9.3219,-9.3332,-9.3338,-9.3512,-9.354,-9.3553,-9.3553,-9.3557,-9.3556,-9.3599,-9.3581,-9.3547,-9.3544,-9.3543,-9.3541,0,-9.253,-9.2555,-9.2752,-9.2835,-9.2859,-9.2988,-9.3057,-9.3164,-9.3188,-9.3338,-9.3373,-9.3411,-9.3542,-9.3558,-9.371,-9.3714,-9.3924,-9.3904,-9.3896,-9.3893,-9.4025,-9.4013,-9.4451,-9.4509,-9.4132,-9.4135,-9.4138,0,-9.2718,-9.2843,-9.2939,-9.3018,-9.307,-9.3195,-9.3272,-9.3276,-9.3358,-9.3464,-9.3558,-9.3686,-9.3789,-9.4,-9.4039,-9.4156,-9.4138,-9.4284,-9.4155,-9.4156,-9.4141,-9.4134,-9.4146,-9.4309,-9.4313,-9.4316,-9.4319,0,-9.3051,-9.3058,-9.3172,-9.3292,-9.3386,-9.3479,-9.3567,-9.3632,-9.3647,-9.374,-9.3876,-9.3956,-9.4113,-9.424,-9.4355,-9.4399,-9.4362,-9.436,-9.4397,-9.4402,-9.4393,-9.44,-9.3964,-9.4349,-9.4346,-9.4344,-9.4343,-9.4341,-9.3288,-9.3397,-9.3483,-9.3611,-9.3678,-9.3762,-9.3867,-9.3905,-9.4019,-9.4149,-9.4144,-9.4293,-9.4373,-9.4524,-9.4577,-9.4692,-9.4644,-9.4697,-9.4711,-9.4724,-9.4738,-9.4375,-9.4713,-9.4712,-9.4711,-9.4711,-9.471,0,-9.3619,-9.3672,-9.3791,-9.3916,-9.4017,-9.3976,-9.4071,-9.4158,-9.4291,-9.437,-9.4473,-9.4629,-9.4752,-9.4802,-9.4922,-9.5004,-9.499,-9.5036,-9.503,-9.5041,-9.4774,-9.473,-9.5045,-9.5045,-9.5045,-9.5045,-9.5045,-9.5045,-9.3803,-9.3985,-9.4002,-9.4217,-9.4267,-9.4416,-9.4474,-9.455,-9.4613,-9.479,-9.4894,-9.4926,-9.4993,-9.5118,-9.5229,-9.524,-9.5286,-9.534,-9.5343,-9.5093,-9.5059,-9.5027,-9.4986,-9.535,-9.535,-9.56,-9.5603,-9.5604]}]]